Location: Burgberg
(50.1428°N, 11.0671°E)
Time: 18:47:49
(UTC+00:00)

CENTAUR R/B - Pass Details

Date: 26 January 2020
Orbit: 766 x 1422 km, 63.5° (Epoch: 07 February)

Event Time Altitude Azimuth Distance (km) Brightness Sun altitude
Exits shadow 03:25:40 69° 346° (NNW) 1,408 3.1 -33.8°
Maximum altitude 03:26:44 79° 45° (NE) 1,365 3.1 -33.7°
Drops below altitude 10° 03:35:27 10° 132° (SE) 3,500 5.8 -32.3°
Sets 03:38:27 0° 134° (SE) 4,489 6.4 -31.8°
